TimeMST,TemperatureF,Dew PointF,Humidity,Sea Level PressureIn,VisibilityMPH,Wind Direction,Wind SpeedMPH,Gust SpeedMPH,PrecipitationIn,Events,Conditions,WindDirDegrees,DateUTC
1:53 AM,25.0,18.0,75,30.19,10.0,Calm,Calm,-,N/A,,Clear,0,2012-11-20 08:53:00
2:53 AM,27.0,19.0,72,30.18,10.0,Calm,Calm,-,N/A,,Clear,0,2012-11-20 09:53:00
3:53 AM,21.9,16.0,78,30.21,10.0,WSW,5.8,-,N/A,,Clear,240,2012-11-20 10:53:00
4:53 AM,25.0,19.0,78,30.24,10.0,South,6.9,-,N/A,,Clear,190,2012-11-20 11:53:00
5:53 AM,23.0,17.1,78,30.26,10.0,SW,9.2,-,N/A,,Clear,230,2012-11-20 12:53:00
6:53 AM,21.9,16.0,78,30.29,10.0,SSW,5.8,-,N/A,,Clear,210,2012-11-20 13:53:00
7:53 AM,32.0,18.0,56,30.28,10.0,West,6.9,-,N/A,,Clear,280,2012-11-20 14:53:00
8:53 AM,39.9,18.0,41,30.27,10.0,West,10.4,-,N/A,,Clear,260,2012-11-20 15:53:00
9:53 AM,46.9,19.0,33,30.27,10.0,West,4.6,-,N/A,,Clear,270,2012-11-20 16:53:00
10:53 AM,55.9,21.0,26,30.22,10.0,WSW,8.1,-,N/A,,Clear,250,2012-11-20 17:53:00
12:53 PM,64.9,18.0,16,30.14,10.0,SSW,8.1,-,N/A,,Clear,210,2012-11-20 19:53:00
1:53 PM,68.0,18.0,15,30.10,10.0,Calm,Calm,-,N/A,,Clear,0,2012-11-20 20:53:00
2:53 PM,71.1,17.1,13,30.08,10.0,South,5.8,-,N/A,,Clear,180,2012-11-20 21:53:00
3:53 PM,68.0,16.0,14,30.09,10.0,SSE,5.8,-,N/A,,Clear,150,2012-11-20 22:53:00
4:53 PM,60.1,15.1,17,30.09,10.0,South,12.7,-,N/A,,Clear,170,2012-11-20 23:53:00
5:53 PM,57.0,14.0,18,30.12,10.0,South,17.3,-,N/A,,Clear,170,2012-11-21 00:53:00
6:53 PM,54.0,12.9,20,30.12,10.0,South,17.3,-,N/A,,Clear,170,2012-11-21 01:53:00
7:53 PM,53.1,12.9,20,30.10,10.0,South,18.4,-,N/A,,Clear,180,2012-11-21 02:53:00
8:53 PM,48.0,14.0,26,30.09,10.0,SSW,11.5,-,N/A,,Clear,200,2012-11-21 03:53:00
9:53 PM,48.9,15.1,26,30.06,10.0,SSW,11.5,-,N/A,,Clear,200,2012-11-21 04:53:00
10:53 PM,50.0,15.1,25,30.03,10.0,SSW,12.7,-,N/A,,Clear,200,2012-11-21 05:53:00
11:53 PM,45.0,14.0,29,30.01,10.0,Calm,Calm,-,N/A,,Clear,0,2012-11-21 06:53:00